Location: Peebles
(55.6412°N, 3.1714°W)
Time: 12:08:21
(UTC+00:00)

RS-15 - Pass Details

Date: 29 November 2023
Orbit: 1893 x 2151 km, 64.8° (Epoch: 02 March)

Event Time Altitude Azimuth Distance (km) Brightness Sun altitude
Exits shadow 03:58:03 40° 319° (NW) 2,750 8.5 -34.7°
Maximum altitude 04:02:55 65° 25° (NNE) 2,148 8.2 -34.1°
Drops below altitude 10° 04:14:01 10° 107° (ESE) 4,332 10.5 -32.5°
Sets 04:17:18 0° 111° (ESE) 5,308 11.1 -32.1°
